Time,TemperatureF,DewpointF,PressureIn,WindDirection,WindDirectionDegrees,WindSpeedMPH,WindSpeedGustMPH,Humidity,HourlyPrecipIn,Conditions,Clouds,dailyrainin,SoftwareType,DateUTC
2013-07-31 00:01:00,65.1,62.1,30.12,East,90,0.0,0.0,90,0.00,,,0.00,Wunderground v.1.15,2013-07-31 04:01:00,
2013-07-31 00:06:00,65.1,62.4,30.12,East,90,0.0,0.0,91,0.00,,,0.00,Wunderground v.1.15,2013-07-31 04:06:00,
2013-07-31 00:08:00,65.0,62.3,30.12,East,90,0.0,0.0,91,0.00,,,0.00,Wunderground v.1.15,2013-07-31 04:08:00,
2013-07-31 00:10:00,65.1,62.4,30.12,East,90,0.0,0.0,91,0.00,,,0.00,Wunderground v.1.15,2013-07-31 04:10:00,
2013-07-31 00:15:00,65.1,62.1,30.12,East,90,0.0,0.0,90,0.00,,,0.00,Wunderground v.1.15,2013-07-31 04:15:00,
2013-07-31 00:20:00,65.1,62.1,30.12,East,90,0.0,0.0,90,0.00,,,0.00,Wunderground v.1.15,2013-07-31 04:20:00,
2013-07-31 00:26:00,65.2,62.2,30.13,East,90,0.0,0.0,90,0.00,,,0.00,Wunderground v.1.15,2013-07-31 04:26:00,
2013-07-31 00:31:00,65.2,62.2,30.13,East,90,0.0,0.0,90,0.00,,,0.00,Wunderground v.1.15,2013-07-31 04:31:00,
2013-07-31 00:37:00,65.1,61.8,30.13,East,90,0.0,0.0,89,0.00,,,0.00,Wunderground v.1.15,2013-07-31 04:37:00,
2013-07-31 00:43:00,65.1,61.8,30.13,East,90,0.0,0.0,89,0.00,,,0.00,Wunderground v.1.15,2013-07-31 04:43:00,
2013-07-31 00:48:00,65.1,61.5,30.13,East,90,0.0,0.0,88,0.00,,,0.00,Wunderground v.1.15,2013-07-31 04:48:00,
2013-07-31 00:53:00,65.2,61.9,30.13,East,90,0.0,0.0,89,0.00,,,0.00,Wunderground v.1.15,2013-07-31 04:53:00,
2013-07-31 00:58:00,65.3,62.0,30.13,East,90,0.0,0.0,89,0.00,,,0.00,Wunderground v.1.15,2013-07-31 04:58:00,
2013-07-31 01:04:00,65.2,62.2,30.13,East,90,0.0,0.0,90,0.00,,,0.00,Wunderground v.1.15,2013-07-31 05:04:00,
2013-07-31 01:10:00,65.1,62.0,30.13,East,90,0.0,0.0,89,0.00,,,0.00,weatherlink.com 1.10,2013-07-31 05:10:00,
2013-07-31 01:15:00,65.1,61.8,30.13,East,90,0.0,0.0,89,0.00,,,0.00,Wunderground v.1.15,2013-07-31 05:15:00,
2013-07-31 01:20:00,65.2,61.9,30.13,East,90,0.0,0.0,89,0.00,,,0.00,Wunderground v.1.15,2013-07-31 05:20:00,
2013-07-31 01:25:00,65.1,61.8,30.13,East,90,0.0,0.0,89,0.00,,,0.00,Wunderground v.1.15,2013-07-31 05:25:00,
2013-07-31 01:31:00,65.2,62.2,30.13,East,90,0.0,0.0,90,0.00,,,0.00,Wunderground v.1.15,2013-07-31 05:31:00,
2013-07-31 01:36:00,65.1,62.1,30.13,East,90,0.0,0.0,90,0.00,,,0.00,Wunderground v.1.15,2013-07-31 05:36:00,
2013-07-31 01:41:00,65.1,62.1,30.13,East,90,0.0,0.0,90,0.00,,,0.00,Wunderground v.1.15,2013-07-31 05:41:00,
2013-07-31 01:47:00,64.9,61.9,30.12,East,90,0.0,0.0,90,0.00,,,0.00,Wunderground v.1.15,2013-07-31 05:47:00,
2013-07-31 01:52:00,64.9,61.9,30.13,East,90,0.0,0.0,90,0.00,,,0.00,Wunderground v.1.15,2013-07-31 05:52:00,
2013-07-31 01:57:00,64.9,61.6,30.12,East,90,0.0,0.0,89,0.00,,,0.00,Wunderground v.1.15,2013-07-31 05:57:00,
2013-07-31 02:02:00,64.9,61.9,30.12,East,90,0.0,0.0,90,0.00,,,0.00,Wunderground v.1.15,2013-07-31 06:02:00,
2013-07-31 02:08:00,65.0,62.0,30.12,East,90,0.0,0.0,90,0.00,,,0.00,Wunderground v.1.15,2013-07-31 06:08:00,
2013-07-31 02:13:00,65.0,61.7,30.12,East,90,0.0,0.0,89,0.00,,,0.00,Wunderground v.1.15,2013-07-31 06:13:00,
2013-07-31 02:18:00,65.1,62.1,30.12,East,90,0.0,0.0,90,0.00,,,0.00,Wunderground v.1.15,2013-07-31 06:18:00,
2013-07-31 02:24:00,65.1,61.8,30.12,East,90,0.0,0.0,89,0.00,,,0.00,Wunderground v.1.15,2013-07-31 06:24:00,
2013-07-31 02:29:00,65.2,61.9,30.12,East,90,0.0,0.0,89,0.00,,,0.00,Wunderground v.1.15,2013-07-31 06:29:00,
2013-07-31 02:34:00,65.3,62.0,30.12,East,90,0.0,0.0,89,0.00,,,0.00,Wunderground v.1.15,2013-07-31 06:34:00,
2013-07-31 02:39:00,65.4,62.1,30.12,East,90,0.0,0.0,89,0.00,,,0.00,Wunderground v.1.15,2013-07-31 06:39:00,
2013-07-31 02:44:00,65.5,62.5,30.12,East,90,0.0,0.0,90,0.00,,,0.00,Wunderground v.1.15,2013-07-31 06:44:00,
2013-07-31 02:49:00,65.4,62.4,30.12,East,90,0.0,0.0,90,0.00,,,0.00,Wunderground v.1.15,2013-07-31 06:49:00,
2013-07-31 02:55:00,65.2,62.5,30.12,East,90,0.0,0.0,91,0.00,,,0.00,Wunderground v.1.15,2013-07-31 06:55:00,
2013-07-31 03:00:00,65.0,62.3,30.12,East,90,0.0,0.0,91,0.00,,,0.00,Wunderground v.1.15,2013-07-31 07:00:00,
2013-07-31 03:06:00,65.0,62.3,30.12,East,90,0.0,0.0,91,0.00,,,0.00,Wunderground v.1.15,2013-07-31 07:06:00,
2013-07-31 03:11:00,64.8,62.1,30.12,East,90,0.0,0.0,91,0.00,,,0.00,Wunderground v.1.15,2013-07-31 07:11:00,
2013-07-31 03:17:00,64.6,61.9,30.12,East,90,0.0,0.0,91,0.00,,,0.00,Wunderground v.1.15,2013-07-31 07:17:00,
2013-07-31 03:22:00,64.4,61.7,30.12,East,90,0.0,0.0,91,0.00,,,0.00,Wunderground v.1.15,2013-07-31 07:22:00,
2013-07-31 03:27:00,64.2,61.5,30.12,East,90,0.0,0.0,91,0.00,,,0.00,Wunderground v.1.15,2013-07-31 07:27:00,
2013-07-31 03:32:00,64.0,61.6,30.12,East,90,0.0,1.0,92,0.00,,,0.00,Wunderground v.1.15,2013-07-31 07:32:00,
2013-07-31 03:33:00,63.9,61.5,30.12,East,90,0.0,1.0,92,0.00,,,0.00,Wunderground v.1.15,2013-07-31 07:33:00,
2013-07-31 03:38:00,63.7,61.6,30.12,East,90,0.0,1.0,93,0.00,,,0.00,Wunderground v.1.15,2013-07-31 07:38:00,
2013-07-31 03:43:00,63.5,61.4,30.12,East,90,0.0,0.0,93,0.00,,,0.00,Wunderground v.1.15,2013-07-31 07:43:00,
2013-07-31 03:48:00,63.4,61.3,30.12,East,90,0.0,0.0,93,0.00,,,0.00,Wunderground v.1.15,2013-07-31 07:48:00,
2013-07-31 03:53:00,63.2,61.1,30.12,East,90,0.0,0.0,93,0.00,,,0.00,Wunderground v.1.15,2013-07-31 07:53:00,
2013-07-31 03:59:00,62.9,60.8,30.12,East,90,0.0,0.0,93,0.00,,,0.00,Wunderground v.1.15,2013-07-31 07:59:00,
2013-07-31 04:04:00,62.7,60.6,30.12,East,90,0.0,0.0,93,0.00,,,0.00,Wunderground v.1.15,2013-07-31 08:04:00,
2013-07-31 04:10:00,62.6,60.8,30.12,East,90,0.0,0.0,94,0.00,,,0.00,Wunderground v.1.15,2013-07-31 08:10:00,
2013-07-31 04:16:00,62.6,60.8,30.12,East,90,0.0,0.0,94,0.00,,,0.00,Wunderground v.1.15,2013-07-31 08:16:00,
2013-07-31 04:21:00,62.5,60.7,30.12,East,90,0.0,0.0,94,0.00,,,0.00,Wunderground v.1.15,2013-07-31 08:21:00,
2013-07-31 04:26:00,62.5,60.7,30.12,East,90,0.0,0.0,94,0.00,,,0.00,Wunderground v.1.15,2013-07-31 08:26:00,
2013-07-31 04:31:00,62.5,60.7,30.12,East,90,0.0,0.0,94,0.00,,,0.00,Wunderground v.1.15,2013-07-31 08:31:00,
2013-07-31 04:36:00,62.5,60.7,30.11,East,90,0.0,0.0,94,0.00,,,0.00,Wunderground v.1.15,2013-07-31 08:36:00,
2013-07-31 04:42:00,62.5,61.0,30.12,East,90,0.0,0.0,94,0.00,,,0.00,weatherlink.com 1.10,2013-07-31 08:42:00,
2013-07-31 04:47:00,62.4,60.7,30.12,East,90,0.0,0.0,94,0.00,,,0.00,Wunderground v.1.15,2013-07-31 08:47:00,
2013-07-31 04:52:00,62.3,60.6,30.12,East,90,0.0,0.0,94,0.00,,,0.00,Wunderground v.1.15,2013-07-31 08:52:00,
2013-07-31 04:58:00,62.2,60.5,30.12,East,90,0.0,0.0,94,0.00,,,0.00,Wunderground v.1.15,2013-07-31 08:58:00,
2013-07-31 05:04:00,62.1,60.7,30.11,East,90,0.0,0.0,95,0.00,,,0.00,Wunderground v.1.15,2013-07-31 09:04:00,
2013-07-31 05:10:00,62.1,60.7,30.11,East,90,0.0,0.0,95,0.00,,,0.00,Wunderground v.1.15,2013-07-31 09:10:00,
2013-07-31 05:15:00,62.0,60.6,30.11,East,90,0.0,0.0,95,0.00,,,0.00,Wunderground v.1.15,2013-07-31 09:15:00,
2013-07-31 05:21:00,62.0,60.6,30.11,East,90,0.0,0.0,95,0.00,,,0.00,Wunderground v.1.15,2013-07-31 09:21:00,
2013-07-31 05:26:00,62.0,60.6,30.11,East,90,0.0,0.0,95,0.00,,,0.00,Wunderground v.1.15,2013-07-31 09:26:00,
2013-07-31 05:32:00,62.0,60.6,30.11,East,90,0.0,0.0,95,0.00,,,0.00,Wunderground v.1.15,2013-07-31 09:32:00,
2013-07-31 05:38:00,62.0,60.6,30.11,East,90,0.0,0.0,95,0.00,,,0.00,Wunderground v.1.15,2013-07-31 09:38:00,
2013-07-31 05:44:00,62.0,60.6,30.12,East,90,0.0,0.0,95,0.00,,,0.00,Wunderground v.1.15,2013-07-31 09:44:00,
2013-07-31 05:50:00,62.0,60.6,30.12,East,90,0.0,0.0,95,0.00,,,0.00,Wunderground v.1.15,2013-07-31 09:50:00,
2013-07-31 05:55:00,62.0,60.6,30.12,East,90,0.0,0.0,95,0.00,,,0.00,Wunderground v.1.15,2013-07-31 09:55:00,
2013-07-31 06:00:00,62.0,60.6,30.12,East,90,0.0,0.0,95,0.00,,,0.00,Wunderground v.1.15,2013-07-31 10:00:00,
2013-07-31 06:06:00,61.9,60.5,30.12,East,90,0.0,0.0,95,0.00,,,0.00,Wunderground v.1.15,2013-07-31 10:06:00,
2013-07-31 06:12:00,61.8,60.4,30.12,East,90,0.0,0.0,95,0.00,,,0.00,Wunderground v.1.15,2013-07-31 10:12:00,
2013-07-31 06:17:00,61.8,60.6,30.12,East,90,0.0,0.0,96,0.00,,,0.00,Wunderground v.1.15,2013-07-31 10:17:00,
2013-07-31 06:22:00,61.8,60.6,30.12,East,90,0.0,0.0,96,0.00,,,0.00,Wunderground v.1.15,2013-07-31 10:22:00,
2013-07-31 06:27:00,61.8,60.6,30.12,East,90,0.0,0.0,96,0.00,,,0.00,Wunderground v.1.15,2013-07-31 10:27:00,
2013-07-31 06:33:00,61.8,60.6,30.12,East,90,0.0,0.0,96,0.00,,,0.00,Wunderground v.1.15,2013-07-31 10:33:00,
2013-07-31 06:38:00,61.9,60.7,30.12,East,90,0.0,0.0,96,0.00,,,0.00,Wunderground v.1.15,2013-07-31 10:38:00,
2013-07-31 06:43:00,62.0,60.8,30.12,East,90,0.0,0.0,96,0.00,,,0.00,Wunderground v.1.15,2013-07-31 10:43:00,
2013-07-31 06:49:00,61.9,60.7,30.12,East,90,0.0,0.0,96,0.00,,,0.00,Wunderground v.1.15,2013-07-31 10:49:00,
2013-07-31 06:55:00,61.8,60.6,30.12,East,90,0.0,0.0,96,0.00,,,0.00,Wunderground v.1.15,2013-07-31 10:55:00,
2013-07-31 07:00:00,61.8,60.6,30.12,East,90,0.0,0.0,96,0.00,,,0.00,Wunderground v.1.15,2013-07-31 11:00:00,
2013-07-31 07:06:00,61.8,60.6,30.12,East,90,0.0,0.0,96,0.00,,,0.00,Wunderground v.1.15,2013-07-31 11:06:00,
2013-07-31 07:12:00,61.9,60.7,30.12,East,90,0.0,0.0,96,0.00,,,0.00,Wunderground v.1.15,2013-07-31 11:12:00,
2013-07-31 07:17:00,62.1,60.9,30.12,East,90,0.0,0.0,96,0.00,,,0.00,Wunderground v.1.15,2013-07-31 11:17:00,
2013-07-31 07:22:00,62.2,61.0,30.12,East,90,0.0,0.0,96,0.00,,,0.00,Wunderground v.1.15,2013-07-31 11:22:00,
2013-07-31 07:27:00,62.4,61.2,30.12,East,90,0.0,0.0,96,0.00,,,0.00,Wunderground v.1.15,2013-07-31 11:27:00,
2013-07-31 07:33:00,62.6,62.0,30.12,East,90,0.0,0.0,96,0.00,,,0.00,weatherlink.com 1.10,2013-07-31 11:33:00,
2013-07-31 07:38:00,62.8,61.6,30.12,East,90,0.0,0.0,96,0.00,,,0.00,Wunderground v.1.15,2013-07-31 11:38:00,
2013-07-31 07:43:00,63.1,61.9,30.12,East,90,0.0,0.0,96,0.00,,,0.00,Wunderground v.1.15,2013-07-31 11:43:00,
2013-07-31 07:48:00,63.4,62.5,30.12,East,90,0.0,0.0,97,0.00,,,0.00,Wunderground v.1.15,2013-07-31 11:48:00,
2013-07-31 07:53:00,63.8,62.6,30.12,East,90,0.0,0.0,96,0.00,,,0.00,Wunderground v.1.15,2013-07-31 11:53:00,
2013-07-31 07:59:00,64.1,62.6,30.12,East,90,0.0,0.0,95,0.00,,,0.00,Wunderground v.1.15,2013-07-31 11:59:00,
2013-07-31 08:04:00,64.5,62.7,30.12,East,90,0.0,0.0,94,0.00,,,0.00,Wunderground v.1.15,2013-07-31 12:04:00,
2013-07-31 08:10:00,64.8,62.7,30.12,East,90,0.0,0.0,93,0.00,,,0.00,Wunderground v.1.15,2013-07-31 12:10:00,
2013-07-31 08:15:00,65.2,62.8,30.12,East,90,0.0,0.0,92,0.00,,,0.00,Wunderground v.1.15,2013-07-31 12:15:00,
2013-07-31 08:20:00,65.5,62.8,30.12,East,90,0.0,0.0,91,0.00,,,0.00,Wunderground v.1.15,2013-07-31 12:20:00,
2013-07-31 08:25:00,65.8,62.8,30.12,East,90,0.0,0.0,90,0.00,,,0.00,Wunderground v.1.15,2013-07-31 12:25:00,
2013-07-31 08:30:00,66.2,63.0,30.12,East,90,0.0,0.0,90,0.00,,,0.00,weatherlink.com 1.10,2013-07-31 12:30:00,
2013-07-31 08:36:00,66.7,64.0,30.12,East,90,0.0,0.0,91,0.00,,,0.00,Wunderground v.1.15,2013-07-31 12:36:00,
2013-07-31 08:42:00,67.0,63.6,30.12,East,90,0.0,0.0,89,0.00,,,0.00,Wunderground v.1.15,2013-07-31 12:42:00,
2013-07-31 08:47:00,67.0,63.3,30.12,East,90,0.0,0.0,88,0.00,,,0.00,Wunderground v.1.15,2013-07-31 12:47:00,
2013-07-31 08:52:00,67.2,63.8,30.13,East,90,0.0,0.0,89,0.00,,,0.00,Wunderground v.1.15,2013-07-31 12:52:00,
2013-07-31 08:57:00,67.3,63.6,30.13,East,90,0.0,0.0,88,0.00,,,0.00,Wunderground v.1.15,2013-07-31 12:57:00,
2013-07-31 09:04:00,67.6,63.6,30.13,East,90,0.0,0.0,87,0.00,,,0.00,Wunderground v.1.15,2013-07-31 13:04:00,
2013-07-31 09:10:00,67.7,63.7,30.12,East,90,0.0,0.0,87,0.00,,,0.00,Wunderground v.1.15,2013-07-31 13:10:00,
2013-07-31 09:15:00,67.9,64.0,30.12,East,90,0.0,0.0,88,0.00,,,0.00,weatherlink.com 1.10,2013-07-31 13:15:00,
2013-07-31 09:20:00,68.1,64.4,30.12,East,90,0.0,0.0,88,0.00,,,0.00,Wunderground v.1.15,2013-07-31 13:20:00,
2013-07-31 09:26:00,68.2,64.5,30.12,East,90,0.0,0.0,88,0.00,,,0.00,Wunderground v.1.15,2013-07-31 13:26:00,
2013-07-31 09:31:00,68.3,64.6,30.12,East,90,0.0,0.0,88,0.00,,,0.00,Wunderground v.1.15,2013-07-31 13:31:00,
2013-07-31 09:37:00,68.5,64.5,30.12,East,90,0.0,0.0,87,0.00,,,0.00,Wunderground v.1.15,2013-07-31 13:37:00,
2013-07-31 09:42:00,68.5,64.1,30.12,East,90,0.0,0.0,86,0.00,,,0.00,Wunderground v.1.15,2013-07-31 13:42:00,
2013-07-31 09:47:00,68.7,65.0,30.12,East,90,0.0,0.0,88,0.00,,,0.00,Wunderground v.1.15,2013-07-31 13:47:00,
2013-07-31 09:52:00,68.7,64.0,30.12,East,90,0.0,0.0,85,0.00,,,0.00,Wunderground v.1.15,2013-07-31 13:52:00,
2013-07-31 09:58:00,69.0,65.0,30.12,East,90,0.0,0.0,87,0.00,,,0.00,Wunderground v.1.15,2013-07-31 13:58:00,
2013-07-31 10:04:00,69.0,64.6,30.12,East,90,0.0,0.0,86,0.00,,,0.00,Wunderground v.1.15,2013-07-31 14:04:00,
2013-07-31 10:10:00,69.2,64.8,30.12,East,90,0.0,0.0,86,0.00,,,0.00,Wunderground v.1.15,2013-07-31 14:10:00,
2013-07-31 10:16:00,69.3,64.9,30.12,East,90,0.0,0.0,86,0.00,,,0.00,Wunderground v.1.15,2013-07-31 14:16:00,
2013-07-31 10:21:00,69.4,65.0,30.11,East,90,0.0,0.0,86,0.00,,,0.00,Wunderground v.1.15,2013-07-31 14:21:00,
2013-07-31 10:26:00,69.5,64.8,30.11,East,90,0.0,0.0,85,0.00,,,0.00,Wunderground v.1.15,2013-07-31 14:26:00,
2013-07-31 10:31:00,69.5,65.0,30.12,East,90,0.0,0.0,85,0.00,,,0.00,weatherlink.com 1.10,2013-07-31 14:31:00,
2013-07-31 10:36:00,69.6,64.9,30.11,East,90,0.0,0.0,85,0.00,,,0.00,Wunderground v.1.15,2013-07-31 14:36:00,
2013-07-31 10:41:00,69.7,65.3,30.11,East,90,0.0,0.0,86,0.00,,,0.00,Wunderground v.1.15,2013-07-31 14:41:00,
2013-07-31 10:47:00,69.8,64.4,30.11,East,90,0.0,0.0,83,0.00,,,0.00,Wunderground v.1.15,2013-07-31 14:47:00,
2013-07-31 10:52:00,69.9,65.2,30.11,East,90,0.0,0.0,85,0.00,,,0.00,Wunderground v.1.15,2013-07-31 14:52:00,
2013-07-31 10:57:00,70.0,64.9,30.11,East,90,0.0,0.0,84,0.00,,,0.00,Wunderground v.1.15,2013-07-31 14:57:00,
2013-07-31 11:02:00,70.1,64.7,30.11,East,90,0.0,0.0,83,0.00,,,0.00,Wunderground v.1.15,2013-07-31 15:02:00,
2013-07-31 11:07:00,70.0,64.6,30.11,East,90,0.0,0.0,83,0.00,,,0.00,Wunderground v.1.15,2013-07-31 15:07:00,
2013-07-31 11:13:00,70.1,64.3,30.11,East,90,0.0,0.0,82,0.00,,,0.00,Wunderground v.1.15,2013-07-31 15:13:00,
2013-07-31 11:18:00,70.2,64.1,30.11,East,90,0.0,0.0,81,0.00,,,0.00,Wunderground v.1.15,2013-07-31 15:18:00,
2013-07-31 11:23:00,70.3,64.5,30.11,East,90,0.0,0.0,82,0.00,,,0.00,Wunderground v.1.15,2013-07-31 15:23:00,
2013-07-31 11:29:00,70.5,65.1,30.11,East,90,0.0,0.0,83,0.00,,,0.00,Wunderground v.1.15,2013-07-31 15:29:00,
2013-07-31 11:34:00,70.7,65.6,30.11,East,90,0.0,0.0,84,0.00,,,0.00,Wunderground v.1.15,2013-07-31 15:34:00,
2013-07-31 11:39:00,70.8,65.7,30.11,East,90,0.0,0.0,84,0.00,,,0.00,Wunderground v.1.15,2013-07-31 15:39:00,
2013-07-31 11:44:00,70.6,64.8,30.10,East,90,0.0,1.0,82,0.00,,,0.00,Wunderground v.1.15,2013-07-31 15:44:00,
2013-07-31 11:49:00,70.6,64.8,30.10,East,90,0.0,1.0,82,0.00,,,0.00,Wunderground v.1.15,2013-07-31 15:49:00,
2013-07-31 11:54:00,70.7,65.6,30.10,East,90,0.0,0.0,84,0.00,,,0.00,Wunderground v.1.15,2013-07-31 15:54:00,
2013-07-31 11:59:00,70.6,64.8,30.10,East,90,0.0,0.0,82,0.00,,,0.00,Wunderground v.1.15,2013-07-31 15:59:00,
2013-07-31 12:04:00,70.5,64.7,30.10,East,90,0.0,1.0,82,0.00,,,0.00,Wunderground v.1.15,2013-07-31 16:04:00,
2013-07-31 12:10:00,70.6,65.2,30.10,East,90,0.0,0.0,83,0.00,,,0.00,Wunderground v.1.15,2013-07-31 16:10:00,
2013-07-31 12:16:00,70.6,65.2,30.10,East,90,0.0,0.0,83,0.00,,,0.00,Wunderground v.1.15,2013-07-31 16:16:00,
2013-07-31 12:21:00,70.6,64.5,30.09,East,90,0.0,0.0,81,0.00,,,0.00,Wunderground v.1.15,2013-07-31 16:21:00,
2013-07-31 12:27:00,70.6,65.2,30.09,East,90,0.0,0.0,83,0.00,,,0.00,Wunderground v.1.15,2013-07-31 16:27:00,
2013-07-31 12:33:00,70.8,65.0,30.09,East,90,0.0,0.0,82,0.00,,,0.00,weatherlink.com 1.10,2013-07-31 16:33:00,
2013-07-31 12:38:00,70.9,64.4,30.09,East,90,0.0,0.0,80,0.00,,,0.00,Wunderground v.1.15,2013-07-31 16:38:00,
2013-07-31 12:43:00,71.0,65.2,30.09,East,90,0.0,0.0,82,0.00,,,0.00,Wunderground v.1.15,2013-07-31 16:43:00,
2013-07-31 12:48:00,71.0,64.2,30.09,East,90,0.0,0.0,79,0.00,,,0.00,Wunderground v.1.15,2013-07-31 16:48:00,
2013-07-31 12:54:00,71.1,65.0,30.09,East,90,0.0,0.0,81,0.00,,,0.00,Wunderground v.1.15,2013-07-31 16:54:00,
2013-07-31 12:59:00,71.2,65.4,30.09,East,90,0.0,0.0,82,0.00,,,0.00,Wunderground v.1.15,2013-07-31 16:59:00,
2013-07-31 13:04:00,71.3,65.5,30.08,East,90,0.0,0.0,82,0.00,,,0.00,Wunderground v.1.15,2013-07-31 17:04:00,
2013-07-31 13:10:00,71.2,65.4,30.09,East,90,0.0,0.0,82,0.00,,,0.00,Wunderground v.1.15,2013-07-31 17:10:00,
2013-07-31 13:15:00,71.1,65.0,30.09,East,90,0.0,0.0,81,0.00,,,0.00,Wunderground v.1.15,2013-07-31 17:15:00,
2013-07-31 13:21:00,71.1,65.3,30.08,East,90,0.0,0.0,82,0.00,,,0.00,Wunderground v.1.15,2013-07-31 17:21:00,
2013-07-31 13:26:00,71.1,65.7,30.08,East,90,0.0,0.0,83,0.00,,,0.00,Wunderground v.1.15,2013-07-31 17:26:00,
2013-07-31 13:31:00,71.1,65.7,30.08,East,90,0.0,0.0,83,0.00,,,0.00,Wunderground v.1.15,2013-07-31 17:31:00,
2013-07-31 13:36:00,71.2,66.1,30.08,ENE,71,0.0,0.0,84,0.00,,,0.00,Wunderground v.1.15,2013-07-31 17:36:00,
2013-07-31 13:42:00,71.2,65.8,30.08,ESE,104,0.0,1.0,83,0.00,,,0.00,Wunderground v.1.15,2013-07-31 17:42:00,
2013-07-31 13:47:00,71.2,65.8,30.08,West,261,0.0,1.0,83,0.00,,,0.00,Wunderground v.1.15,2013-07-31 17:47:00,
2013-07-31 13:53:00,71.2,65.1,30.07,West,261,0.0,1.0,81,0.00,,,0.00,Wunderground v.1.15,2013-07-31 17:53:00,
2013-07-31 13:59:00,71.3,65.5,30.07,West,261,0.0,1.0,82,0.00,,,0.00,Wunderground v.1.15,2013-07-31 17:59:00,
2013-07-31 14:04:00,71.3,65.5,30.07,West,261,0.0,0.0,82,0.00,,,0.00,Wunderground v.1.15,2013-07-31 18:04:00,
2013-07-31 14:09:00,71.3,65.2,30.07,West,261,0.0,0.0,81,0.00,,,0.00,Wunderground v.1.15,2013-07-31 18:09:00,
2013-07-31 14:15:00,71.5,66.1,30.07,West,261,0.0,1.0,83,0.00,,,0.00,Wunderground v.1.15,2013-07-31 18:15:00,
2013-07-31 14:21:00,71.8,65.7,30.07,West,261,0.0,0.0,81,0.00,,,0.00,Wunderground v.1.15,2013-07-31 18:21:00,
2013-07-31 14:26:00,72.2,66.7,30.06,West,261,0.0,0.0,83,0.00,,,0.00,Wunderground v.1.15,2013-07-31 18:26:00,
2013-07-31 14:32:00,72.8,66.6,30.06,West,261,0.0,1.0,81,0.00,,,0.00,Wunderground v.1.15,2013-07-31 18:32:00,
2013-07-31 14:37:00,73.0,66.5,30.06,West,261,0.0,1.0,80,0.00,,,0.00,Wunderground v.1.15,2013-07-31 18:37:00,
2013-07-31 14:43:00,73.0,66.5,30.06,West,261,1.0,1.0,80,0.00,,,0.00,Wunderground v.1.15,2013-07-31 18:43:00,
2013-07-31 14:48:00,73.0,66.8,30.06,West,261,1.0,2.0,81,0.00,,,0.00,Wunderground v.1.15,2013-07-31 18:48:00,
2013-07-31 14:53:00,73.3,66.8,30.06,West,261,1.0,1.0,80,0.00,,,0.00,Wunderground v.1.15,2013-07-31 18:53:00,
2013-07-31 14:58:00,73.7,65.7,30.05,WNW,287,0.0,1.0,76,0.00,,,0.00,Wunderground v.1.15,2013-07-31 18:58:00,
2013-07-31 15:04:00,74.3,67.7,30.05,WNW,287,1.0,1.0,80,0.00,,,0.00,Wunderground v.1.15,2013-07-31 19:04:00,
2013-07-31 15:10:00,74.6,67.3,30.05,WNW,288,1.0,1.0,78,0.00,,,0.00,Wunderground v.1.15,2013-07-31 19:10:00,
2013-07-31 15:15:00,74.7,65.9,30.05,North,5,1.0,2.0,74,0.00,,,0.00,Wunderground v.1.15,2013-07-31 19:15:00,
2013-07-31 15:20:00,74.8,66.0,30.05,NW,326,1.0,1.0,74,0.00,,,0.00,Wunderground v.1.15,2013-07-31 19:20:00,
2013-07-31 15:25:00,75.0,66.1,30.05,NW,326,0.0,1.0,74,0.00,,,0.00,Wunderground v.1.15,2013-07-31 19:25:00,
2013-07-31 15:30:00,75.1,65.9,30.05,NW,326,0.0,0.0,73,0.00,,,0.00,Wunderground v.1.15,2013-07-31 19:30:00,
2013-07-31 15:35:00,75.3,67.0,30.05,NW,326,0.0,2.0,76,0.00,,,0.00,weatherlink.com 1.10,2013-07-31 19:35:00,
2013-07-31 15:40:00,75.4,67.7,30.05,NW,326,0.0,1.0,77,0.00,,,0.00,Wunderground v.1.15,2013-07-31 19:40:00,
2013-07-31 15:45:00,75.4,67.3,30.04,NW,326,0.0,1.0,76,0.00,,,0.00,Wunderground v.1.15,2013-07-31 19:45:00,
2013-07-31 15:50:00,75.4,66.5,30.04,NW,326,0.0,1.0,74,0.00,,,0.00,Wunderground v.1.15,2013-07-31 19:50:00,
2013-07-31 15:56:00,75.3,66.4,30.04,NW,326,0.0,1.0,74,0.00,,,0.00,Wunderground v.1.15,2013-07-31 19:56:00,
2013-07-31 16:02:00,75.5,67.0,30.04,NW,326,0.0,0.0,75,0.00,,,0.00,Wunderground v.1.15,2013-07-31 20:02:00,
2013-07-31 16:08:00,75.6,68.0,30.03,NW,326,0.0,1.0,76,0.00,,,0.00,weatherlink.com 1.10,2013-07-31 20:08:00,
2013-07-31 16:13:00,75.6,66.7,30.03,NW,326,0.0,0.0,74,0.00,,,0.00,Wunderground v.1.15,2013-07-31 20:13:00,
2013-07-31 16:18:00,76.0,68.3,30.03,NW,326,0.0,0.0,77,0.00,,,0.00,Wunderground v.1.15,2013-07-31 20:18:00,
2013-07-31 16:23:00,76.2,68.1,30.02,NW,326,0.0,0.0,76,0.00,,,0.00,Wunderground v.1.15,2013-07-31 20:23:00,
2013-07-31 16:28:00,76.5,68.0,30.02,NW,326,0.0,1.0,75,0.00,,,0.00,Wunderground v.1.15,2013-07-31 20:28:00,
2013-07-31 16:33:00,76.6,67.7,30.02,NW,326,0.0,0.0,74,0.00,,,0.00,Wunderground v.1.15,2013-07-31 20:33:00,
2013-07-31 16:39:00,76.5,67.2,30.02,NW,326,0.0,1.0,73,0.00,,,0.00,Wunderground v.1.15,2013-07-31 20:39:00,
2013-07-31 16:44:00,76.4,67.1,30.02,NW,326,0.0,1.0,73,0.00,,,0.00,Wunderground v.1.15,2013-07-31 20:44:00,
2013-07-31 16:49:00,76.3,67.8,30.02,NW,326,0.0,1.0,75,0.00,,,0.00,Wunderground v.1.15,2013-07-31 20:49:00,
2013-07-31 16:54:00,76.1,68.4,30.02,NW,326,0.0,1.0,77,0.00,,,0.00,Wunderground v.1.15,2013-07-31 20:54:00,
2013-07-31 16:59:00,76.1,68.0,30.01,NW,326,0.0,1.0,76,0.00,,,0.00,Wunderground v.1.15,2013-07-31 20:59:00,
2013-07-31 17:04:00,76.3,68.6,30.01,NW,326,0.0,1.0,77,0.00,,,0.00,Wunderground v.1.15,2013-07-31 21:04:00,
2013-07-31 17:10:00,76.5,68.7,30.01,NW,326,0.0,0.0,77,0.00,,,0.00,Wunderground v.1.15,2013-07-31 21:10:00,
2013-07-31 17:16:00,76.7,68.6,30.01,NW,326,0.0,0.0,76,0.00,,,0.00,Wunderground v.1.15,2013-07-31 21:16:00,
2013-07-31 17:21:00,76.8,68.3,30.01,NW,326,0.0,1.0,75,0.00,,,0.00,Wunderground v.1.15,2013-07-31 21:21:00,
2013-07-31 17:27:00,76.8,69.0,30.01,NW,326,0.0,1.0,77,0.00,,,0.00,Wunderground v.1.15,2013-07-31 21:27:00,
2013-07-31 17:32:00,76.7,68.2,30.01,NW,326,0.0,0.0,75,0.00,,,0.00,Wunderground v.1.15,2013-07-31 21:32:00,
2013-07-31 17:38:00,76.8,68.7,30.01,NW,326,0.0,1.0,76,0.00,,,0.00,Wunderground v.1.15,2013-07-31 21:38:00,
2013-07-31 17:43:00,77.2,69.0,30.00,NW,326,0.0,0.0,76,0.00,,,0.00,Wunderground v.1.15,2013-07-31 21:43:00,
2013-07-31 17:48:00,77.1,69.3,30.00,NW,326,0.0,2.0,77,0.00,,,0.00,Wunderground v.1.15,2013-07-31 21:48:00,
2013-07-31 17:53:00,76.8,68.7,30.00,NW,326,0.0,0.0,76,0.00,,,0.00,Wunderground v.1.15,2013-07-31 21:53:00,
2013-07-31 17:59:00,76.4,68.3,30.00,NW,326,0.0,1.0,76,0.00,,,0.00,Wunderground v.1.15,2013-07-31 21:59:00,
2013-07-31 18:04:00,76.0,68.6,30.00,NW,326,0.0,1.0,78,0.00,,,0.00,Wunderground v.1.15,2013-07-31 22:04:00,
2013-07-31 18:10:00,75.6,68.6,30.00,NW,326,0.0,0.0,79,0.00,,,0.00,Wunderground v.1.15,2013-07-31 22:10:00,
2013-07-31 18:15:00,75.4,68.8,30.00,NW,326,0.0,0.0,80,0.00,,,0.00,Wunderground v.1.15,2013-07-31 22:15:00,
2013-07-31 18:21:00,75.1,68.9,30.00,NW,326,0.0,0.0,81,0.00,,,0.00,Wunderground v.1.15,2013-07-31 22:21:00,
2013-07-31 18:26:00,74.8,68.6,30.00,NW,326,0.0,1.0,81,0.00,,,0.00,Wunderground v.1.15,2013-07-31 22:26:00,
2013-07-31 18:31:00,73.9,67.0,30.00,East,84,1.0,2.0,79,0.00,,,0.00,Wunderground v.1.15,2013-07-31 22:31:00,
2013-07-31 18:36:00,72.0,66.0,30.01,ENE,67,1.0,8.0,81,0.05,,,0.05,weatherlink.com 1.10,2013-07-31 22:36:00,
2013-07-31 18:42:00,69.4,65.4,30.01,NNE,30,2.0,3.0,87,0.62,,,0.18,Wunderground v.1.15,2013-07-31 22:42:00,
2013-07-31 18:48:00,67.9,64.9,30.01,East,100,1.0,3.0,90,0.23,,,0.21,Wunderground v.1.15,2013-07-31 22:48:00,
2013-07-31 18:53:00,67.4,65.0,30.01,East,100,1.0,1.0,92,0.12,,,0.21,Wunderground v.1.15,2013-07-31 22:53:00,
2013-07-31 18:58:00,67.2,65.1,30.01,East,100,1.0,1.0,93,0.22,,,0.23,Wunderground v.1.15,2013-07-31 22:58:00,
2013-07-31 19:04:00,67.0,65.2,30.01,East,100,0.0,2.0,94,0.13,,,0.25,Wunderground v.1.15,2013-07-31 23:04:00,
2013-07-31 19:10:00,66.9,65.4,30.00,East,100,0.0,0.0,95,0.15,,,0.26,Wunderground v.1.15,2013-07-31 23:10:00,
2013-07-31 19:16:00,66.9,65.4,30.00,East,100,0.0,0.0,95,0.07,,,0.26,Wunderground v.1.15,2013-07-31 23:16:00,
2013-07-31 19:21:00,66.8,65.3,30.00,East,100,0.0,0.0,95,0.06,,,0.27,Wunderground v.1.15,2013-07-31 23:21:00,
2013-07-31 19:27:00,66.8,65.3,30.00,East,100,0.0,0.0,95,0.06,,,0.27,Wunderground v.1.15,2013-07-31 23:27:00,
2013-07-31 19:33:00,66.8,65.6,30.00,East,101,0.0,0.0,96,0.04,,,0.27,Wunderground v.1.15,2013-07-31 23:33:00,
2013-07-31 19:38:00,66.8,65.6,29.99,East,100,0.0,0.0,96,0.00,,,0.27,Wunderground v.1.15,2013-07-31 23:38:00,
2013-07-31 19:44:00,66.7,65.2,30.00,East,101,0.0,0.0,95,0.00,,,0.27,Wunderground v.1.15,2013-07-31 23:44:00,
2013-07-31 19:50:00,66.5,65.0,30.00,East,100,0.0,0.0,95,0.00,,,0.27,Wunderground v.1.15,2013-07-31 23:50:00,
2013-07-31 19:56:00,66.4,65.0,30.00,East,101,0.0,0.0,95,0.05,,,0.27,weatherlink.com 1.10,2013-07-31 23:56:00,
2013-07-31 20:01:00,66.3,65.1,30.00,East,101,0.0,0.0,96,0.00,,,0.27,Wunderground v.1.15,2013-08-01 00:01:00,
2013-07-31 20:07:00,66.5,65.3,29.99,East,101,0.0,0.0,96,0.00,,,0.27,Wunderground v.1.15,2013-08-01 00:07:00,
2013-07-31 20:12:00,66.5,65.3,29.99,East,101,0.0,0.0,96,0.00,,,0.27,Wunderground v.1.15,2013-08-01 00:12:00,
2013-07-31 20:18:00,66.4,65.2,29.99,East,101,0.0,0.0,96,0.00,,,0.27,Wunderground v.1.15,2013-08-01 00:18:00,
2013-07-31 20:23:00,66.4,65.2,29.99,East,101,0.0,0.0,96,0.00,,,0.27,Wunderground v.1.15,2013-08-01 00:23:00,
2013-07-31 20:28:00,66.3,65.1,29.99,East,101,0.0,0.0,96,0.00,,,0.27,Wunderground v.1.15,2013-08-01 00:28:00,
2013-07-31 20:34:00,66.2,65.0,29.99,East,100,0.0,0.0,96,0.00,,,0.27,Wunderground v.1.15,2013-08-01 00:34:00,
2013-07-31 20:40:00,66.1,64.9,30.00,East,100,0.0,0.0,96,0.00,,,0.27,Wunderground v.1.15,2013-08-01 00:40:00,
2013-07-31 20:45:00,66.1,64.9,29.99,East,101,0.0,0.0,96,0.00,,,0.27,Wunderground v.1.15,2013-08-01 00:45:00,
2013-07-31 20:50:00,66.0,64.8,29.99,East,101,0.0,0.0,96,0.00,,,0.27,Wunderground v.1.15,2013-08-01 00:50:00,
2013-07-31 20:55:00,66.0,65.1,29.99,East,100,0.0,0.0,97,0.00,,,0.27,Wunderground v.1.15,2013-08-01 00:55:00,
2013-07-31 21:00:00,66.0,65.1,29.99,East,100,0.0,0.0,97,0.00,,,0.27,Wunderground v.1.15,2013-08-01 01:00:00,
2013-07-31 21:06:00,66.0,65.1,29.99,East,101,0.0,0.0,97,0.00,,,0.27,Wunderground v.1.15,2013-08-01 01:06:00,
2013-07-31 21:12:00,66.1,65.2,30.00,East,101,0.0,0.0,97,0.00,,,0.27,Wunderground v.1.15,2013-08-01 01:12:00,
2013-07-31 21:18:00,66.1,65.2,30.00,East,100,0.0,0.0,97,0.00,,,0.27,Wunderground v.1.15,2013-08-01 01:18:00,
2013-07-31 21:24:00,66.1,65.2,30.00,East,101,0.0,0.0,97,0.00,,,0.27,Wunderground v.1.15,2013-08-01 01:24:00,
2013-07-31 21:29:00,66.1,65.2,29.99,East,101,0.0,0.0,97,0.00,,,0.27,Wunderground v.1.15,2013-08-01 01:29:00,
2013-07-31 21:34:00,66.2,65.3,29.99,East,101,0.0,0.0,97,0.00,,,0.27,Wunderground v.1.15,2013-08-01 01:34:00,
2013-07-31 21:40:00,66.2,65.0,29.99,East,101,0.0,0.0,97,0.00,,,0.27,weatherlink.com 1.10,2013-08-01 01:40:00,
2013-07-31 21:45:00,66.2,65.3,30.00,East,101,0.0,0.0,97,0.00,,,0.27,Wunderground v.1.15,2013-08-01 01:45:00,
2013-07-31 21:51:00,66.2,65.3,30.00,East,101,0.0,0.0,97,0.00,,,0.27,Wunderground v.1.15,2013-08-01 01:51:00,
2013-07-31 21:56:00,66.2,65.3,30.00,East,101,0.0,0.0,97,0.00,,,0.27,Wunderground v.1.15,2013-08-01 01:56:00,
2013-07-31 22:02:00,66.2,65.3,30.00,East,100,0.0,0.0,97,0.00,,,0.27,Wunderground v.1.15,2013-08-01 02:02:00,
2013-07-31 22:07:00,66.2,65.3,30.00,East,100,0.0,0.0,97,0.00,,,0.27,Wunderground v.1.15,2013-08-01 02:07:00,
2013-07-31 22:13:00,66.1,65.2,30.00,East,101,0.0,0.0,97,0.00,,,0.27,Wunderground v.1.15,2013-08-01 02:13:00,
2013-07-31 22:18:00,66.1,65.2,30.00,East,100,0.0,0.0,97,0.00,,,0.27,Wunderground v.1.15,2013-08-01 02:18:00,
2013-07-31 22:19:00,66.1,65.2,30.00,East,100,0.0,0.0,97,0.00,,,0.27,Wunderground v.1.15,2013-08-01 02:19:00,
2013-07-31 22:24:00,66.1,65.2,30.00,East,100,0.0,0.0,97,0.00,,,0.27,Wunderground v.1.15,2013-08-01 02:24:00,
2013-07-31 22:29:00,66.1,65.2,30.00,East,100,0.0,1.0,97,0.00,,,0.27,Wunderground v.1.15,2013-08-01 02:29:00,
2013-07-31 22:34:00,66.1,65.5,30.00,East,100,0.0,0.0,98,0.00,,,0.27,Wunderground v.1.15,2013-08-01 02:34:00,
2013-07-31 22:39:00,66.2,65.6,29.99,East,100,0.0,0.0,98,0.00,,,0.27,Wunderground v.1.15,2013-08-01 02:39:00,
2013-07-31 22:45:00,66.2,65.6,29.99,East,100,0.0,0.0,98,0.00,,,0.27,Wunderground v.1.15,2013-08-01 02:45:00,
2013-07-31 22:50:00,66.3,65.7,29.99,East,100,0.0,0.0,98,0.00,,,0.27,Wunderground v.1.15,2013-08-01 02:50:00,
2013-07-31 22:56:00,66.3,65.7,29.99,East,100,0.0,0.0,98,0.00,,,0.27,Wunderground v.1.15,2013-08-01 02:56:00,
2013-07-31 23:01:00,66.4,65.8,29.99,East,100,0.0,0.0,98,0.00,,,0.27,Wunderground v.1.15,2013-08-01 03:01:00,
2013-07-31 23:07:00,66.4,65.8,29.99,East,101,0.0,0.0,98,0.00,,,0.27,Wunderground v.1.15,2013-08-01 03:07:00,
2013-07-31 23:12:00,66.4,65.8,29.98,East,100,0.0,0.0,98,0.00,,,0.27,Wunderground v.1.15,2013-08-01 03:12:00,
2013-07-31 23:17:00,66.4,65.8,29.98,East,101,0.0,0.0,98,0.00,,,0.27,Wunderground v.1.15,2013-08-01 03:17:00,
2013-07-31 23:23:00,66.4,65.8,29.98,East,100,0.0,0.0,98,0.00,,,0.27,Wunderground v.1.15,2013-08-01 03:23:00,
2013-07-31 23:29:00,66.4,65.8,29.98,East,101,0.0,0.0,98,0.00,,,0.27,Wunderground v.1.15,2013-08-01 03:29:00,
2013-07-31 23:34:00,66.4,65.8,29.98,East,100,0.0,0.0,98,0.00,,,0.27,Wunderground v.1.15,2013-08-01 03:34:00,
2013-07-31 23:40:00,66.4,65.8,29.98,East,100,0.0,0.0,98,0.00,,,0.27,Wunderground v.1.15,2013-08-01 03:40:00,
2013-07-31 23:45:00,66.4,65.8,29.98,East,100,0.0,0.0,98,0.00,,,0.27,Wunderground v.1.15,2013-08-01 03:45:00,
2013-07-31 23:50:00,66.3,65.7,29.98,East,100,0.0,0.0,98,0.00,,,0.27,Wunderground v.1.15,2013-08-01 03:50:00,
2013-07-31 23:55:00,66.3,65.7,29.97,East,100,0.0,2.0,98,0.00,,,0.27,Wunderground v.1.15,2013-08-01 03:55:00,